Wind_Speed
27 25 24 23 23 21 16 14 12 9 8 6 4 3 4 5 7 9 10 11 13 14
29 30 28 26 24 21 18 14 11 9 7 5 4 4 4 6 8 10 11 12 13 14
32 30 28 27 26 22 19 13 11 9 7 5 4 4 6 8 9 11 12 14 15 15
30 29 28 27 22 20 14 13 10 8 6 4 4 6 7 9 10 12 13 14 15 16
29 26 23 21 17 16 15 13 10 8 6 4 6 7 9 10 12 14 15 16 16 17
25 23 21 19 18 17 14 11 8 5 4 5 6 7 9 12 14 15 16 17 18 19
24 23 21 20 17 14 11 8 5 3 4 6 8 9 11 13 14 15 16 17 18 19
25 23 21 18 15 12 9 6 3 3 4 7 9 11 12 14 15 17 17 18 19 21
23 21 18 15 12 9 6 4 2 3 5 7 10 12 15 16 16 18 20 22 23 24
22 18 15 12 9 7 4 2 2 4 7 9 11 14 16 17 18 20 22 24 26 27
19 16 14 11 7 5 2 2 3 6 8 10 13 15 17 19 20 21 22 24 26 27
17 15 12 9 6 3 1 3 6 8 11 13 15 17 19 21 23 25 26 27 26 27
16 12 9 6 3 1 3 5 8 10 14 16 17 18 19 21 24 27 29 30 30 30
13 10 7 4 2 2 5 8 11 14 16 18 19 19 20 22 24 26 30 32 33 33
Wind_Direction
204 209 203 206 204 210 216 223 238 244 252 249 260 283 308 321 328 330 327 322 322 323
203 204 202 205 208 209 217 223 223 227 224 227 246 281 312 322 325 324 327 328 327 326
201 199 206 210 208 206 207 205 203 204 207 221 254 293 311 316 322 327 331 333 333 330
198 198 198 201 189 197 191 188 188 194 210 232 268 297 317 323 331 336 337 336 333 328
191 190 190 189 184 184 181 183 189 200 222 258 294 317 325 332 335 335 333 332 330 326
184 184 179 178 175 175 181 184 193 214 258 292 310 324 329 330 331 331 331 330 329 327
175 173 172 172 173 175 177 186 200 234 286 309 320 322 321 322 323 323 326 328 328 327
169 169 169 171 173 176 179 187 208 277 307 314 314 317 321 321 323 323 324 325 324 324
168 170 171 171 171 173 179 189 226 289 311 319 319 322 321 320 321 325 324 322 322 322
170 169 169 170 171 171 177 201 287 310 314 318 321 321 321 324 324 322 320 321 321 321
168 169 167 166 169 173 186 268 308 319 321 321 322 321 320 319 317 315 315 317 318 321
168 168 167 167 171 184 257 317 321 325 326 325 325 322 319 316 316 316 317 316 321 327
165 165 165 165 167 236 306 317 324 328 326 322 318 316 316 317 317 317 318 321 325 325
160 161 164 168 204 298 311 319 320 320 320 321 321 320 319 320 320 320 319 321 324 325
Height
1542 1546 1550 1552 1554 1557 1559 1560 1561 1562 1563 1563 1563 1564 1563 1562 1561 1560 1559 1558 1556 1555
1540 1543 1546 1550 1552 1555 1556 1557 1558 1560 1561 1561 1561 1562 1561 1560 1560 1558 1557 1556 1554 1552
1537 1539 1544 1547 1549 1551 1552 1554 1556 1557 1558 1559 1559 1559 1558 1558 1557 1556 1554 1553 1552 1549
1533 1537 1539 1543 1545 1547 1550 1551 1553 1555 1556 1557 1557 1556 1556 1555 1553 1552 1551 1549 1547 1545
1530 1534 1537 1540 1543 1545 1548 1550 1552 1552 1553 1554 1554 1553 1552 1551 1550 1548 1547 1544 1542 1540
1529 1532 1536 1539 1542 1545 1547 1549 1550 1551 1551 1551 1550 1550 1549 1548 1547 1545 1542 1540 1538 1536
1527 1531 1535 1539 1542 1544 1546 1548 1548 1548 1548 1548 1548 1547 1546 1544 1543 1541 1540 1537 1534 1532
1528 1531 1534 1537 1540 1542 1543 1545 1546 1546 1545 1545 1544 1543 1542 1540 1538 1536 1535 1534 1531 1528
1527 1531 1533 1536 1538 1541 1542 1543 1543 1544 1544 1542 1541 1539 1537 1535 1534 1531 1529 1528 1526 1524
1525 1528 1532 1536 1538 1538 1540 1541 1541 1542 1542 1540 1538 1536 1533 1531 1529 1528 1526 1524 1520 1518
1524 1527 1529 1532 1536 1537 1538 1539 1539 1538 1538 1537 1535 1532 1529 1526 1524 1522 1520 1516 1513 1510
1522 1525 1528 1529 1532 1534 1535 1535 1536 1535 1535 1534 1532 1529 1526 1524 1521 1518 1514 1512 1507 1505
1521 1524 1526 1528 1529 1532 1532 1532 1532 1531 1530 1529 1527 1525 1522 1519 1514 1511 1506 1506 1501 1498
1520 1522 1525 1525 1527 1529 1529 1529 1528 1527 1527 1525 1523 1522 1518 1514 1510 1505 1500 1498 1493 1492